"Timestamp","TZ","WindDir_Mean (deg)","WindSpd_Mean (km/h)","WindSpd_Min (km/h)","WindSpd_Max (km/h)","Temp_Mean (deg)","RH_Mean (%)","MSLP_Mean (hPa)","Rain_Acc (mm)","Rain_Intensity (mm/h)","Hail_Acc (hits/cm2)","Hail_Intensity (hits/cm2hr)","Solar_Mean (W/m2)"
2022/12/20 00:00:00.018,n,165,10.440002,7.92,14.76,19.3,53.6,1018.82,0,0,0,0,0.017395
2022/12/20 00:01:00.001,n,183,17.64,16.56,20.16,19.3,53.3,1018.82,0,0,0,0,0.020866
2022/12/20 00:02:00.001,n,119,4.32,3.96,4.68,19.3,53.7,1018.82,0,0,0,0,0.017395
2022/12/20 00:03:00.001,n,147,10.440002,8.64,12.96,19.3,53.4,1018.82,0,0,0,0,0.020866
2022/12/20 00:04:00.001,n,187,11.52,9,14.76,19.3,53.5,1018.72,0,0,0,0,0.018234
2022/12/20 00:05:00.001,n,169,5.76,3.6,10.8,19.3,53.5,1018.72,0,0,0,0,0.01564
2022/12/20 00:06:00.002,n,183,10.8,7.2,15.12,19.3,53.5,1018.72,0,0,0,0,0.018234
2022/12/20 00:07:00.006,n,92,3.6,0.72,9,19.3,53.3,1018.72,0,0,0,0,0.017395
2022/12/20 00:08:00.007,n,166,10.08,7.2,15.12,19.3,53.1,1018.62,0,0,0,0,0.01564
2022/12/20 00:09:00.009,n,192,7.2,3.6,13.32,19.3,53.3,1018.62,0,0,0,0,0.01564
2022/12/20 00:10:00.001,n,159,6.84,5.04,12.6,19.3,53.1,1018.62,0,0,0,0,0.014801
2022/12/20 00:11:00.002,n,149,5.4,2.52,9,19.3,53,1018.52,0,0,0,0,0.014801
2022/12/20 00:12:00.002,n,202,8.28,5.4,10.08,19.3,52.7,1018.52,0,0,0,0,0.016518
2022/12/20 00:13:00.007,n,141,14.04,11.52,19.44,19.3,52.9,1018.52,0,0,0,0,0.017395
2022/12/20 00:14:00.002,n,145,9.72,2.88,14.04,19.3,52.4,1018.52,0,0,0,0,0.013924
2022/12/20 00:15:00.001,n,194,9,4.32,15.84,19.3,52.8,1018.52,0,0,0,0,0.017395
2022/12/20 00:16:00.002,n,202,4.32,1.8,8.64,19.2,53,1018.52,0,0,0,0,0.016518
2022/12/20 00:17:00.014,n,170,11.88,7.92,18,19.2,53.1,1018.52,0,0,0,0,0.009575
2022/12/20 00:18:00.017,n,202,7.56,6.48,11.88,19.2,53.1,1018.52,0,0,0,0,0.026131
2022/12/20 00:19:00.002,n,164,7.92,5.76,15.48,19.2,53.1,1018.52,0,0,0,0,0.031357
2022/12/20 00:20:00.004,n,188,9.36,6.12,11.88,19.2,52.9,1018.52,0,0,0,0,0.029602
2022/12/20 00:21:00.001,n,173,12.6,7.2,14.04,19.2,53.2,1018.52,0,0,0,0,0.027008
2022/12/20 00:22:00.001,n,204,8.64,6.84,13.68,19.2,53.3,1018.42,0,0,0,0,0.028725
2022/12/20 00:23:00.002,n,191,8.28,4.68,11.16,19.1,53.5,1018.42,0,0,0,0,0.026131
2022/12/20 00:24:00.001,n,164,4.68,3.6,7.92,19.1,53.7,1018.42,0,0,0,0,0.027885
2022/12/20 00:25:00.005,n,160,16.56,12.6,19.44,19.1,53.7,1018.42,0,0,0,0,0.024376
2022/12/20 00:26:00.002,n,310,4.68,1.44,5.76,19.1,53.9,1018.42,0,0,0,0,0.025291
2022/12/20 00:27:00.003,n,199,4.68,2.88,7.56,19,53.9,1018.42,0,0,0,0,0.024376
2022/12/20 00:28:00.001,n,185,2.88,1.08,6.12,19,54.1,1018.42,0,0,0,0,0.024376
2022/12/20 00:29:00.001,n,315,1.44,0.72,2.52,19,55.5,1018.42,0,0,0,0,0.026131
2022/12/20 00:30:00.001,n,125,1.08,0.72,1.08,19,54.6,1018.42,0,0,0,0,0.025291
2022/12/20 00:31:00.002,n,304,2.88,2.52,3.6,19,54.6,1018.42,0,0,0,0,0.021782
2022/12/20 00:32:00.005,n,172,17.28,12.96,20.519998,19,54.7,1018.32,0,0,0,0,0.027008
2022/12/20 00:33:00.008,n,178,8.28,4.68,11.88,19,54.8,1018.42,0,0,0,0,0.026131
2022/12/20 00:34:00.011,n,169,12.96,9.36,20.519998,18.9,54.7,1018.32,0,0,0,0,0.021782
2022/12/20 00:35:00.014,n,214,5.4,3.96,10.440002,18.9,54.8,1018.32,0,0,0,0,0.026131
2022/12/20 00:36:00.015,n,238,6.84,5.4,8.64,18.8,55,1018.32,0,0,0,0,0.023499
2022/12/20 00:37:00.001,n,276,4.32,3.24,5.76,18.8,55.2,1018.32,0,0,0,0,0.024376
2022/12/20 00:38:00.002,n,123,1.8,0.72,2.52,18.8,55.3,1018.32,0,0,0,0,0.023499
2022/12/20 00:39:00.005,n,196,8.28,5.76,11.52,18.8,55.4,1018.32,0,0,0,0,0.020027
2022/12/20 00:40:00.007,n,220,4.68,3.96,5.04,18.8,55.5,1018.32,0,0,0,0,0.023499
2022/12/20 00:41:00.009,n,131,5.76,3.6,7.92,18.7,55.3,1018.32,0,0,0,0,0.017433
2022/12/20 00:42:00.011,n,279,7.2,6.48,7.56,18.7,55.7,1018.32,0,0,0,0,0.022659
2022/12/20 00:43:00.013,n,177,4.68,1.44,9,18.7,55.7,1018.32,0,0,0,0,0.022659
2022/12/20 00:44:00.015,n,172,6.12,1.44,11.16,18.7,55.8,1018.32,0,0,0,0,0.021782
2022/12/20 00:45:00.002,n,137,4.68,3.96,10.08,18.7,55.8,1018.32,0,0,0,0,0.023499
2022/12/20 00:46:00.001,n,207,6.12,3.6,7.2,18.6,55.9,1018.32,0,0,0,0,0.020905
2022/12/20 00:47:00.007,n,346,1.44,0.72,3.96,18.6,56.4,1018.32,0,0,0,0,0.025291
2022/12/20 00:48:00.001,n,171,5.04,3.24,8.64,18.6,56.1,1018.32,0,0,0,0,0.021782
2022/12/20 00:49:00.014,n,172,2.88,2.16,5.4,18.5,56.1,1018.32,0,0,0,0,0.024376
2022/12/20 00:50:00.011,n,176,3.24,0.36,6.12,18.5,56.3,1018.32,0,0,0,0,0.026131
2022/12/20 00:51:00.009,n,277,2.16,1.44,2.52,18.5,56.4,1018.22,0,0,0,0,0.030479
2022/12/20 00:52:00.002,n,325,4.68,3.96,5.4,18.5,56.6,1018.22,0,0,0,0,0.033073
2022/12/20 00:53:00.016,n,357,2.16,0.36,6.48,18.5,56.3,1018.22,0,0,0,0,0.034828
2022/12/20 00:54:00.007,n,252,3.24,0.72,3.96,18.5,56.7,1018.22,0,0,0,0,0.035706
2022/12/20 00:55:00.002,n,177,6.84,5.4,8.28,18.5,56.3,1018.22,0,0,0,0,0.036583
2022/12/20 00:56:00.003,n,125,4.68,3.96,5.4,18.4,56.2,1018.22,0,0,0,0,0.043526
2022/12/20 00:57:00.005,n,140,5.4,3.96,7.2,18.4,56.4,1018.22,0,0,0,0,0.043526
2022/12/20 00:58:00.006,n,185,10.440002,7.56,13.32,18.4,56.4,1018.22,0,0,0,0,0.048752
2022/12/20 00:59:00.002,n,189,4.68,2.88,6.84,18.3,56.3,1018.22,0,0,0,0,0.047035
2022/12/20 01:00:00.001,n,165,4.32,1.8,6.48,18.3,56.4,1018.22,0,0,0,0,0.025215
2022/12/20 01:01:00.004,n,165,12.24,9.36,16.919998,18.3,56.5,1018.22,0,0,0,0,0.031319
2022/12/20 01:02:00.015,n,174,10.08,6.48,14.4,18.2,56.6,1018.22,0,0,0,0,0.033073
2022/12/20 01:03:00.021,n,177,12.6,10.08,16.2,18.2,56.6,1018.12,0,0,0,0,0.035667
2022/12/20 01:04:00.007,n,170,3.96,2.88,5.04,18.2,56.7,1018.12,0,0,0,0,0.036545
2022/12/20 01:05:00.004,n,215,8.28,7.56,11.88,18.2,56.6,1018.12,0,0,0,0,0.037422
2022/12/20 01:06:00.001,n,93,3.24,0.72,4.68,18.2,56.8,1018.12,0,0,0,0,0.040894
2022/12/20 01:07:00.010,n,201,6.48,5.04,8.64,18.1,56.8,1018.12,0,0,0,0,0.040016
2022/12/20 01:08:00.011,n,153,3.6,2.88,3.96,18.1,56.9,1018.12,0,0,0,0,0.0383
2022/12/20 01:09:00.018,n,181,7.56,5.4,10.8,18.1,56.8,1018.12,0,0,0,0,0.040894
2022/12/20 01:10:00.018,n,149,3.6,2.52,4.32,18.1,57,1018.12,0,0,0,0,0.040894
2022/12/20 01:11:00.013,n,174,4.68,3.96,4.68,18.1,57,1018.12,0,0,0,0,0.0383
2022/12/20 01:12:00.003,n,198,7.92,6.48,11.16,18.1,57,1018.12,0,0,0,0,0.041733
2022/12/20 01:13:00.002,n,306,1.44,0.72,2.16,18.1,57.2,1018.22,0,0,0,0,0.039139
2022/12/20 01:14:00.009,n,187,5.4,3.24,7.92,18.1,57.4,1018.22,0,0,0,0,0.040894
2022/12/20 01:15:00.002,n,141,3.6,2.52,4.32,18,57.3,1018.22,0,0,0,0,0.041733
2022/12/20 01:16:00.020,n,225,2.52,1.44,4.32,18,57.5,1018.12,0,0,0,0,0.044365
2022/12/20 01:17:00.002,n,293,8.28,6.12,10.08,18,57.5,1018.12,0,0,0,0,0.044365
2022/12/20 01:18:00.014,n,152,5.4,2.16,8.64,18,57.3,1018.12,0,0,0,0,0.046959
2022/12/20 01:19:00.005,n,181,9.36,6.48,11.16,18,57.2,1018.12,0,0,0,0,0.042648
2022/12/20 01:20:00.009,n,182,6.12,3.6,10.440002,18,57.4,1018.12,0,0,0,0,0.048714
2022/12/20 01:21:00.015,n,256,3.24,2.88,3.96,18,57.6,1018.12,0,0,0,0,0.04612
2022/12/20 01:22:00.002,n,193,10.8,7.56,13.32,18,57,1018.12,0,0,0,0,0.04612
2022/12/20 01:23:00.002,n,247,7.92,6.84,10.08,18,57,1018.02,0,0,0,0,0.04612
2022/12/20 01:24:00.020,n,192,7.2,4.68,10.08,17.9,56.8,1018.02,0,0,0,0,0.042648
2022/12/20 01:25:00.001,n,140,1.44,0.72,3.96,17.9,57.1,1018.02,0,0,0,0,0.047874
2022/12/20 01:26:00.009,n,103,1.08,0.72,1.44,17.9,56.8,1017.92,0,0,0,0,0.046959
2022/12/20 01:27:00.012,n,189,9.72,7.92,12.6,17.9,56.5,1017.92,0,0,0,0,0.049591
2022/12/20 01:28:00.017,n,180,4.32,2.88,4.68,17.9,56.6,1018.02,0,0,0,0,0.048714
2022/12/20 01:29:00.009,n,204,3.6,2.88,4.68,17.9,56.7,1018.02,0,0,0,0,0.050468
2022/12/20 01:30:00.008,n,345,6.48,2.16,9.72,17.9,57.1,1017.92,0,0,0,0,0.045242
2022/12/20 01:31:00.001,n,226,5.4,2.88,7.56,17.9,57.1,1018.02,0,0,0,0,0.046959
2022/12/20 01:32:00.004,n,176,4.68,2.16,9.36,17.9,56.7,1017.92,0,0,0,0,0.044365
2022/12/20 01:33:00.002,n,96,3.24,0.36,5.76,17.8,56.5,1017.92,0,0,0,0,0.025253
2022/12/20 01:34:00.002,n,219,5.04,3.96,6.48,17.8,56.7,1017.92,0,0,0,0,0.025253
2022/12/20 01:35:00.002,n,142,2.88,1.44,5.04,17.8,57.3,1017.92,0,0,0,0,0.027847
2022/12/20 01:36:00.004,n,217,4.68,2.88,7.92,17.8,57,1017.92,0,0,0,0,0.030479
2022/12/20 01:37:00.009,n,302,1.44,0.36,4.32,17.8,57,1017.92,0,0,0,0,0.032196
2022/12/20 01:38:00.020,n,191,5.4,3.24,9.36,17.8,57.1,1017.92,0,0,0,0,0.030479
2022/12/20 01:39:00.015,n,150,11.88,9.72,13.68,17.8,56.7,1017.82,0,0,0,0,0.031319
2022/12/20 01:40:00.001,n,192,11.52,10.08,14.04,17.7,56.8,1017.82,0,0,0,0,0.029602
2022/12/20 01:41:00.001,n,170,12.96,9.72,14.76,17.7,56.5,1017.82,0,0,0,0,0.02697
2022/12/20 01:42:00.001,n,177,2.52,1.8,6.48,17.7,56.9,1017.82,0,0,0,0,0.027847
2022/12/20 01:43:00.002,n,173,3.96,1.8,6.84,17.7,56.9,1017.82,0,0,0,0,0.027847
2022/12/20 01:44:00.005,n,180,1.8,1.08,2.52,17.7,57.1,1017.82,0,0,0,0,0.030479
2022/12/20 01:45:00.001,n,155,8.64,5.76,11.52,17.7,56.8,1017.82,0,0,0,0,0.029602
2022/12/20 01:46:00.005,n,213,8.64,6.48,13.32,17.7,56.8,1017.82,0,0,0,0,0.030479
2022/12/20 01:47:00.028,n,165,7.92,3.96,10.8,17.7,56.9,1017.82,0,0,0,0,0.029602
2022/12/20 01:48:00.005,n,185,3.24,1.08,4.32,17.6,56.9,1017.82,0,0,0,0,0.031319
2022/12/20 01:49:00.001,n,255,1.8,1.08,2.88,17.6,57.7,1017.82,0,0,0,0,0.028687
2022/12/20 01:50:00.002,n,179,3.96,2.52,5.4,17.7,57.6,1017.82,0,0,0,0,0.029602
2022/12/20 01:51:00.003,n,126,2.16,0.72,5.04,17.6,57.1,1017.72,0,0,0,0,0.028687
2022/12/20 01:52:00.007,n,191,4.32,3.24,5.04,17.6,57.2,1017.72,0,0,0,0,0.030479
2022/12/20 01:53:00.004,n,165,5.4,3.96,9,17.6,57.1,1017.72,0,0,0,0,0.031319
2022/12/20 01:54:00.002,n,271,2.52,1.44,3.96,17.6,57.2,1017.72,0,0,0,0,0.029602
2022/12/20 01:55:00.001,n,194,1.08,0.36,2.16,17.6,58.7,1017.72,0,0,0,0,0.030479
2022/12/20 01:56:00.023,n,109,2.52,0.72,5.4,17.6,57.5,1017.72,0,0,0,0,0.028687
2022/12/20 01:57:00.006,n,141,2.88,1.8,5.4,17.6,57.3,1017.72,0,0,0,0,0.030479
2022/12/20 01:58:00.001,n,122,3.24,2.16,4.68,17.5,57.4,1017.72,0,0,0,0,0.029602
2022/12/20 01:59:00.001,n,180,1.8,0.36,5.4,17.5,57.6,1017.72,0,0,0,0,0.028687
2022/12/20 02:00:00.009,n,203,2.52,2.16,3.96,17.5,57.5,1017.72,0,0,0,0,0.031319
2022/12/20 02:01:00.002,n,190,2.88,1.44,5.04,17.5,57.5,1017.72,0,0,0,0,0.026093
2022/12/20 02:02:00.003,n,195,2.16,1.08,4.32,17.5,58,1017.72,0,0,0,0,0.031319
2022/12/20 02:03:00.009,n,174,2.88,0.72,3.96,17.4,57.6,1017.72,0,0,0,0,0.02697
2022/12/20 02:04:00.009,n,112,1.44,0.72,2.16,17.4,57.8,1017.72,0,0,0,0,0.027847
2022/12/20 02:05:00.013,n,243,1.08,0.36,2.52,17.4,57.8,1017.72,0,0,0,0,0.030479
2022/12/20 02:06:00.011,n,243,7.2,4.32,10.08,17.4,57.5,1017.72,0,0,0,0,0.027847
2022/12/20 02:07:00.002,n,161,4.32,1.8,7.56,17.4,57.3,1017.72,0,0,0,0,0.029602
2022/12/20 02:08:00.001,n,166,9,6.48,13.68,17.4,57.3,1017.72,0,0,0,0,0.028687
2022/12/20 02:09:00.002,n,217,5.04,4.68,7.56,17.4,57.4,1017.72,0,0,0,0,0.026093
2022/12/20 02:10:00.007,n,238,3.24,2.88,3.6,17.4,57.7,1017.72,0,0,0,0,0.027847
2022/12/20 02:11:00.009,n,164,6.84,3.24,12.24,17.3,57.5,1017.72,0,0,0,0,0.023499
2022/12/20 02:12:00.004,n,183,1.44,0.36,4.32,17.3,57.5,1017.72,0,0,0,0,0.028687
2022/12/20 02:13:00.002,n,157,1.8,0.36,4.68,17.3,57.6,1017.82,0,0,0,0,0.027847
2022/12/20 02:14:00.016,n,85,2.16,0.72,5.4,17.4,58.1,1017.82,0,0,0,0,0.02697
2022/12/20 02:15:00.006,n,297,1.08,0.72,1.44,17.4,57.7,1017.82,0,0,0,0,0.029602
2022/12/20 02:16:00.001,n,250,1.44,0.72,2.16,17.3,58,1017.82,0,0,0,0,0.029602
2022/12/20 02:17:00.001,n,305,2.52,1.8,3.24,17.3,57.9,1017.72,0,0,0,0,0.027847
2022/12/20 02:18:00.001,n,237,1.08,0.72,2.88,17.3,57.7,1017.72,0,0,0,0,0.026093
2022/12/20 02:19:00.013,n,150,3.24,0.72,6.84,17.3,57.6,1017.72,0,0,0,0,0.027847
2022/12/20 02:20:00.001,n,301,2.52,0.72,3.6,17.3,57.9,1017.72,0,0,0,0,0.031319
2022/12/20 02:21:00.002,n,186,2.88,1.08,5.76,17.3,57.6,1017.62,0,0,0,0,0.026093
2022/12/20 02:22:00.002,n,351,1.08,0.72,4.68,17.2,58.4,1017.62,0,0,0,0,0.027847
2022/12/20 02:23:00.003,n,201,3.6,2.52,5.4,17.2,57.7,1017.52,0,0,0,0,0.024376
2022/12/20 02:24:00.016,n,196,1.44,0.36,4.32,17.2,58,1017.52,0,0,0,0,0.027847
2022/12/20 02:25:00.002,n,143,4.32,3.96,5.76,17.2,57.9,1017.52,0,0,0,0,0.02697
2022/12/20 02:26:00.001,n,175,6.84,4.32,11.16,17.2,57.9,1017.52,0,0,0,0,0.026093
2022/12/20 02:27:00.006,n,299,3.6,1.08,6.48,17.2,57.8,1017.52,0,0,0,0,0.02697
2022/12/20 02:28:00.003,n,189,4.68,2.88,7.2,17.2,57.8,1017.62,0,0,0,0,0.02697
2022/12/20 02:29:00.001,n,309,1.44,0.36,4.32,17.2,58.1,1017.62,0,0,0,0,0.02697
2022/12/20 02:30:00.007,n,179,3.96,2.16,6.48,17.2,58.5,1017.62,0,0,0,0,0.026093
2022/12/20 02:31:00.009,n,288,2.88,1.44,4.32,17.2,59.2,1017.72,0,0,0,0,0.028687
2022/12/20 02:32:00.007,n,144,5.76,4.32,7.2,17.2,58.5,1017.72,0,0,0,0,0.025253
2022/12/20 02:33:00.003,n,271,4.32,3.6,5.04,17.2,58.1,1017.72,0,0,0,0,0.023499
2022/12/20 02:34:00.002,n,238,1.08,0.72,1.8,17.1,58,1017.72,0,0,0,0,0.024376
2022/12/20 02:35:00.001,n,279,2.88,2.88,3.6,17.1,58.1,1017.72,0,0,0,0,0.025253
2022/12/20 02:36:00.015,n,291,2.88,0.72,4.32,17.1,58.8,1017.72,0,0,0,0,0.024376
2022/12/20 02:37:00.001,n,176,3.24,1.8,5.4,17.1,58.3,1017.62,0,0,0,0,0.024376
2022/12/20 02:38:00.006,n,211,4.32,3.24,7.56,17.1,58.1,1017.62,0,0,0,0,0.024376
2022/12/20 02:39:00.013,n,281,2.88,2.52,3.24,17.1,58.6,1017.62,0,0,0,0,0.02697
2022/12/20 02:40:00.008,n,150,2.88,1.44,4.68,17.1,58.6,1017.62,0,0,0,0,0.023499
2022/12/20 02:41:00.003,n,304,1.8,1.08,4.32,17,58.6,1017.62,0,0,0,0,0.02697
2022/12/20 02:42:00.005,n,311,1.8,1.08,3.24,17,58.9,1017.62,0,0,0,0,0.02697
2022/12/20 02:43:00.002,n,84,2.16,0.72,3.96,17,58.7,1017.72,0,0,0,0,0.025253
2022/12/20 02:44:00.009,n,194,2.52,0.72,4.32,17,59.2,1017.72,0,0,0,0,0.025253
2022/12/20 02:45:00.006,n,131,2.16,1.44,2.88,17,59.2,1017.72,0,0,0,0,0.024376
2022/12/20 02:46:00.005,n,158,6.48,3.6,11.52,17,58.7,1017.72,0,0,0,0,0.023499
2022/12/20 02:47:00.002,n,249,3.6,2.16,5.4,17,58.5,1017.72,0,0,0,0,0.02697
2022/12/20 02:48:00.010,n,272,3.24,2.88,3.6,17,58.9,1017.72,0,0,0,0,0.024376
2022/12/20 02:49:00.001,n,99,1.44,1.08,1.8,17,58.8,1017.72,0,0,0,0,0.02697
2022/12/20 02:50:00.004,n,171,10.08,6.84,15.12,17,58.6,1017.72,0,0,0,0,0.026093
2022/12/20 02:51:00.006,n,202,3.24,1.44,4.68,17,58.3,1017.72,0,0,0,0,0.024338
2022/12/20 02:52:00.001,n,290,5.04,2.16,7.92,17,58.3,1017.72,0,0,0,0,0.033035
2022/12/20 02:53:00.002,n,161,5.76,4.68,10.08,17,58.2,1017.72,0,0,0,0,0.029564
2022/12/20 02:54:00.003,n,196,11.16,7.92,14.04,17,58.1,1017.72,0,0,0,0,0.029564
2022/12/20 02:55:00.002,n,171,4.32,1.08,7.56,17,58.2,1017.72,0,0,0,0,0.030441
2022/12/20 02:56:00.002,n,227,3.24,1.8,6.12,17,58.2,1017.72,0,0,0,0,0.026093
2022/12/20 02:57:00.003,n,173,4.68,2.88,8.28,17,58.8,1017.72,0,0,0,0,0.027809
2022/12/20 02:58:00.010,n,147,3.24,0,5.4,17,58.4,1017.72,0,0,0,0,0.025215
2022/12/20 02:59:00.015,n,150,4.32,3.24,5.4,17,58.5,1017.72,0,0,0,0,0.027809
2022/12/20 03:00:00.004,n,200,4.32,1.08,7.2,17,58.2,1017.72,0,0,0,0,0.029564
2022/12/20 03:01:00.003,n,171,11.88,6.48,13.68,17,58.3,1017.72,0,0,0,0,0.030441
2022/12/20 03:02:00.001,n,248,8.64,5.76,12.24,17,58.2,1017.72,0,0,0,0,0.024338
2022/12/20 03:03:00.003,n,188,4.32,1.44,8.64,17,58.3,1017.72,0,0,0,0,0.025215
2022/12/20 03:04:00.008,n,166,10.08,4.68,11.52,17,58.1,1017.72,0,0,0,0,0.025215
2022/12/20 03:05:00.001,n,165,12.6,6.84,14.76,17,57.8,1017.72,0,0,0,0,0.025215
2022/12/20 03:06:00.005,n,166,19.08,13.68,21.599998,17,57.6,1017.72,0,0,0,0,0.02697
2022/12/20 03:07:00.002,n,218,7.2,5.4,9,17,57.7,1017.72,0,0,0,0,0.02697
2022/12/20 03:08:00.012,n,231,4.68,3.96,5.4,17,57.7,1017.72,0,0,0,0,0.022621
2022/12/20 03:09:00.025,n,151,3.96,0.72,9.36,17,57.6,1017.72,0,0,0,0,0.02346
2022/12/20 03:10:00.002,n,155,7.56,5.04,12.96,17,57.6,1017.72,0,0,0,0,0.024338
2022/12/20 03:11:00.003,n,197,9.72,9.36,10.440002,17,57.5,1017.72,0,0,0,0,0.020866
2022/12/20 03:12:00.001,n,219,5.76,5.04,9.72,17,57.6,1017.72,0,0,0,0,0.021744
2022/12/20 03:13:00.001,n,156,7.2,6.12,7.92,17,57.5,1017.72,0,0,0,0,0.019112
2022/12/20 03:14:00.001,n,299,2.16,1.08,3.6,17,57.6,1017.72,0,0,0,0,0.020027
2022/12/20 03:15:00.007,n,225,7.56,6.12,9.72,17,57.5,1017.82,0,0,0,0,0.02697
2022/12/20 03:16:00.004,n,134,5.04,1.44,10.8,17,57.2,1017.82,0,0,0,0,0.029602
2022/12/20 03:17:00.002,n,149,7.2,3.24,9.36,17,57.2,1017.82,0,0,0,0,0.031319
2022/12/20 03:18:00.011,n,160,3.24,2.88,4.32,17,57.4,1017.82,0,0,0,0,0.033073
2022/12/20 03:19:00.002,n,127,1.8,1.44,2.16,17,57.5,1017.82,0,0,0,0,0.02697
2022/12/20 03:20:00.001,n,281,5.76,5.4,5.76,17,57.7,1017.82,0,0,0,0,0.027847
2022/12/20 03:21:00.004,n,153,2.88,2.52,3.24,17,57.7,1017.92,0,0,0,0,0.027847
2022/12/20 03:22:00.007,n,198,10.440002,9,11.52,17,57.2,1017.82,0,0,0,0,0.028725
2022/12/20 03:23:00.009,n,173,9.36,6.12,12.6,17,57,1017.82,0,0,0,0,0.029602
2022/12/20 03:24:00.012,n,195,4.32,2.88,7.56,17,57.2,1017.82,0,0,0,0,0.026093
2022/12/20 03:25:00.001,n,183,8.64,6.48,13.32,17,57,1017.82,0,0,0,0,0.02697
2022/12/20 03:26:00.011,n,301,2.88,2.52,3.6,17,57.8,1017.82,0,0,0,0,0.030441
2022/12/20 03:27:00.012,n,187,4.68,3.24,6.84,17,57.5,1017.92,0,0,0,0,0.027847
2022/12/20 03:28:00.002,n,179,3.6,1.8,6.48,17,56.9,1017.92,0,0,0,0,0.02697
2022/12/20 03:29:00.001,n,148,1.08,0.72,5.4,17,57.9,1017.92,0,0,0,0,0.026093
2022/12/20 03:30:00.002,n,146,11.88,10.8,13.32,17,56.7,1017.92,0,0,0,0,0.027847
2022/12/20 03:31:00.004,n,131,4.32,1.8,5.76,17,57.1,1018.02,0,0,0,0,0.021744
2022/12/20 03:32:00.004,n,118,1.8,0.72,3.24,17,56.9,1018.02,0,0,0,0,0.025215
2022/12/20 03:33:00.002,n,175,11.16,4.32,13.32,17,56.9,1017.92,0,0,0,0,0.026093
2022/12/20 03:34:00.018,n,224,7.92,6.84,9.36,17,56.7,1018.02,0,0,0,0,0.027847
2022/12/20 03:35:00.007,n,188,13.68,12.96,14.76,17,56.5,1017.92,0,0,0,0,0.025215
2022/12/20 03:36:00.007,n,186,6.12,3.6,7.92,17,56.6,1017.92,0,0,0,0,0.022659
2022/12/20 03:37:00.001,n,185,7.2,3.24,10.08,17,56.7,1017.92,0,0,0,0,0.026093
2022/12/20 03:38:00.002,n,127,6.84,3.6,9.36,17,56.5,1017.92,0,0,0,0,0.025215
2022/12/20 03:39:00.001,n,183,9,4.68,14.4,17,56.4,1017.92,0,0,0,0,0.026093
2022/12/20 03:40:00.001,n,180,5.76,2.16,11.88,17,56.4,1018.02,0,0,0,0,0.023499
2022/12/20 03:41:00.018,n,172,21.24,17.64,25.56,17,56.1,1017.92,0,0,0,0,0.024376
2022/12/20 03:42:00.002,n,162,13.32,8.28,15.84,17,56.2,1017.92,0,0,0,0,0.021782
2022/12/20 03:43:00.012,n,191,8.64,6.48,10.8,17,56.3,1017.92,0,0,0,0,0.025215
2022/12/20 03:44:00.002,n,219,11.16,9.72,15.48,17,55.9,1017.92,0,0,0,0,0.027847
2022/12/20 03:45:00.010,n,209,6.12,5.04,8.64,17,56.2,1017.92,0,0,0,0,0.028725
2022/12/20 03:46:00.001,n,184,7.92,6.84,9.72,17,56.4,1017.92,0,0,0,0,0.026093
2022/12/20 03:47:00.001,n,164,12.96,8.64,14.4,17,56,1017.92,0,0,0,0,0.024376
2022/12/20 03:48:00.001,n,168,8.64,6.48,12.96,17,56,1017.92,0,0,0,0,0.023499
2022/12/20 03:49:00.004,n,177,16.56,15.12,20.519998,16.9,55.8,1017.92,0,0,0,0,0.020027
2022/12/20 03:50:00.008,n,163,8.64,6.48,15.84,17,55.7,1017.92,0,0,0,0,0.017433
2022/12/20 03:51:00.013,n,212,9.72,6.84,11.52,17,55.8,1017.82,0,0,0,0,0.023499
2022/12/20 03:52:00.002,n,186,15.84,12.6,19.8,17,55.7,1017.82,0,0,0,0,0.024376
2022/12/20 03:53:00.003,n,188,10.08,8.64,13.68,17,56,1017.82,0,0,0,0,0.021782
2022/12/20 03:54:00.006,n,193,12.6,9.36,16.2,16.9,55.8,1017.82,0,0,0,0,0.01915
2022/12/20 03:55:00.001,n,177,14.04,11.52,17.28,16.9,55.8,1017.82,0,0,0,0,0.014801
2022/12/20 03:56:00.004,n,213,6.48,3.6,8.64,16.9,55.8,1017.82,0,0,0,0,0.023499
2022/12/20 03:57:00.002,n,156,6.84,5.04,10.08,16.9,55.9,1017.82,0,0,0,0,0.025253
2022/12/20 03:58:00.001,n,163,12.6,8.64,15.12,16.9,55.8,1017.82,0,0,0,0,0.024376
2022/12/20 03:59:00.002,n,196,8.64,7.92,9.72,16.9,55.6,1017.82,0,0,0,0,0.023499
2022/12/20 04:00:00.001,n,179,14.76,12.6,17.28,16.9,55.7,1017.82,0,0,0,0,0.022621
2022/12/20 04:01:00.004,n,206,8.28,7.2,9,16.9,55.8,1017.82,0,0,0,0,0.017433
2022/12/20 04:02:00.008,n,174,7.56,4.68,10.08,16.9,55.9,1017.82,0,0,0,0,0.016556
2022/12/20 04:03:00.014,n,151,19.44,13.68,22.68,16.9,55.8,1017.82,0,0,0,0,0.028725
2022/12/20 04:04:00.001,n,187,14.76,13.32,16.919998,16.9,55.8,1017.92,0,0,0,0,0.033073
2022/12/20 04:05:00.001,n,172,3.6,2.16,7.2,16.9,55.9,1017.92,0,0,0,0,0.030479
2022/12/20 04:06:00.004,n,180,16.2,14.4,18.359998,16.9,55.8,1017.82,0,0,0,0,0.031319
2022/12/20 04:07:00.001,n,160,12.24,9,18.359998,16.9,55.9,1017.92,0,0,0,0,0.027885
2022/12/20 04:08:00.001,n,185,15.12,11.16,20.519998,16.9,55.8,1017.92,0,0,0,0,0.028725
2022/12/20 04:09:00.001,n,137,8.64,7.56,10.08,16.9,55.7,1017.92,0,0,0,0,0.033951
2022/12/20 04:10:00.005,n,186,14.04,11.52,16.2,16.9,55.6,1017.92,0,0,0,0,0.039177
2022/12/20 04:11:00.009,n,196,9,8.28,9.36,16.9,55.7,1017.82,0,0,0,0,0.037422
2022/12/20 04:12:00.013,n,174,2.52,1.08,3.6,16.9,55.7,1017.82,0,0,0,0,0.0383
2022/12/20 04:13:00.001,n,163,7.92,5.04,12.24,16.8,55.8,1017.82,0,0,0,0,0.040016
2022/12/20 04:14:00.005,n,176,10.8,7.92,14.04,16.8,55.8,1017.82,0,0,0,0,0.043526
2022/12/20 04:15:00.001,n,173,7.56,3.6,12.24,16.8,55.9,1017.82,0,0,0,0,0.046997
2022/12/20 04:16:00.001,n,154,8.28,6.12,12.6,16.8,55.6,1017.82,0,0,0,0,0.05394
2022/12/20 04:17:00.001,n,166,11.16,6.84,16.56,16.8,55.8,1017.82,0,0,0,0,0.06443
2022/12/20 04:18:00.001,n,133,1.8,1.08,4.68,16.8,55.9,1017.82,0,0,0,0,0.082664
2022/12/20 04:19:00.002,n,206,11.88,10.08,16.2,16.8,55.9,1017.82,0,0,0,0,0.093155
2022/12/20 04:20:00.001,n,162,15.48,10.440002,19.44,16.8,55.9,1017.82,0,0,0,0,0.10788
2022/12/20 04:21:00.005,n,163,8.28,5.04,13.32,16.8,56,1017.92,0,0,0,0,0.12619
2022/12/20 04:22:00.001,n,194,8.28,5.76,13.32,16.8,56.1,1017.92,0,0,0,0,0.157509
2022/12/20 04:23:00.002,n,209,2.88,1.08,5.04,16.8,56.2,1017.92,0,0,0,0,0.199242
2022/12/20 04:24:00.002,n,173,9,6.84,14.04,16.8,56.1,1017.92,0,0,0,0,0.253983
2022/12/20 04:25:00.008,n,173,8.28,5.76,11.52,16.8,56.2,1018.02,0,0,0,0,0.335732
2022/12/20 04:26:00.011,n,183,4.32,1.8,6.48,16.8,56.6,1017.92,0,0,0,0,0.43644
2022/12/20 04:27:00.001,n,175,5.76,3.96,9,16.8,56.4,1017.92,0,0,0,0,0.557137
2022/12/20 04:28:00.014,n,31,3.96,2.88,10.08,16.700002,56.9,1017.92,0,0,0,0,0.680809
2022/12/20 04:29:00.005,n,134,5.04,1.44,6.48,16.700002,56.4,1017.92,0,0,0,0,0.807037
2022/12/20 04:30:00.008,n,236,5.4,3.24,8.28,16.700002,56.5,1018.02,0,0,0,0,0.934868
2022/12/20 04:31:00.001,n,317,3.24,1.08,4.68,16.700002,56.5,1018.02,0,0,0,0,1.062622
2022/12/20 04:32:00.001,n,203,6.12,1.8,10.8,16.700002,56.6,1018.02,0,0,0,0,1.192932
2022/12/20 04:33:00.005,n,128,6.48,4.32,7.2,16.700002,56.6,1018.02,0,0,0,0,1.330032
2022/12/20 04:34:00.008,n,129,3.6,1.08,5.4,16.700002,56.4,1017.92,0,0,0,0,1.475716
2022/12/20 04:35:00.002,n,175,12.6,9.36,15.12,16.700002,56.5,1017.92,0,0,0,0,1.631661
2022/12/20 04:36:00.004,n,165,6.12,4.32,9.36,16.700002,56.6,1018.02,0,0,0,0,1.801338
2022/12/20 04:37:00.009,n,264,2.88,2.52,3.6,16.700002,56.7,1018.02,0,0,0,0,1.980324
2022/12/20 04:38:00.011,n,176,12.24,10.08,16.919998,16.700002,56.6,1018.02,0,0,0,0,2.169991
2022/12/20 04:39:00.016,n,198,6.84,3.6,8.28,16.700002,56.7,1018.02,0,0,0,0,2.377892
2022/12/20 04:40:00.004,n,166,2.88,2.52,3.24,16.700002,56.8,1018.02,0,0,0,0,2.606316
2022/12/20 04:41:00.002,n,147,3.96,1.44,6.48,16.700002,56.8,1018.02,0,0,0,0,2.711792
2022/12/20 04:42:00.001,n,163,12.24,4.68,15.84,16.6,56.9,1017.92,0,0,0,0,3.01487
2022/12/20 04:43:00.001,n,177,9,5.4,11.52,16.6,57.1,1018.02,0,0,0,0,3.251915
2022/12/20 04:44:00.001,n,154,5.04,2.52,9.36,16.6,57,1017.92,0,0,0,0,3.605118
2022/12/20 04:45:00.003,n,118,5.04,3.24,8.28,16.6,57,1017.92,0,0,0,0,3.975067
2022/12/20 04:46:00.006,n,176,10.440002,7.56,12.24,16.6,57,1018.02,0,0,0,0,4.345932
2022/12/20 04:47:00.014,n,147,8.64,7.56,10.08,16.6,57,1018.02,0,0,0,0,4.776917
2022/12/20 04:48:00.002,n,195,8.64,7.56,9.36,16.6,57.2,1018.02,0,0,0,0,5.201721
2022/12/20 04:49:00.001,n,215,6.84,4.32,7.56,16.6,57.2,1018.02,0,0,0,0,5.689736
2022/12/20 04:50:00.001,n,172,9.72,5.04,11.52,16.6,57.4,1018.02,0,0,0,0,6.24382
2022/12/20 04:51:00.002,n,65,1.44,0.72,3.6,16.6,57.7,1018.02,0,0,0,0,6.86512
2022/12/20 04:52:00.001,n,244,8.64,7.92,9.36,16.6,57.5,1018.12,0,0,0,0,7.072525
2022/12/20 04:53:00.003,n,158,3.24,1.08,5.04,16.5,57.7,1018.12,0,0,0,0,8.68168